Location: Proctor
(47.8934°N, 114.3048°W)
Time: 12:38:10
(UTC+00:00)

AO-92 - Pass Details

Date: 02 July 2022
Orbit: 469 x 481 km, 97.4° (Epoch: 10 August)

Event Time Altitude Azimuth Distance (km) Brightness Sun altitude
Exits shadow 06:43:29 11° 239° (WSW) 1,594 ? -17.9°
Maximum altitude 06:45:12 14° 269° (W) 1,409 ? -18.0°
Drops below altitude 10° 06:47:13 10° 304° (NW) 1,666 ? -18.0°
Sets 06:50:06 0° 330° (NNW) 2,556 ? -18.1°
